Probability
1 1 1 0 0 0 0 0 0 0 0 0 0 0 0 0 0 0 0 0 0 0 1 1 1 0 0 0 0 1 2 3 2 1 0 0 0 0 0 0 0 0 0 0
0 0 0 0 0 0 0 0 0 0 0 0 0 0 0 0 0 0 0 0 0 0 1 1 0 0 0 0 0 0 1 3 3 1 0 0 0 0 0 0 0 0 0 0
0 0 0 0 0 0 0 0 0 0 0 0 0 0 0 0 0 0 0 0 0 0 0 0 0 0 0 0 0 0 1 2 3 1 0 0 0 0 0 0 0 0 0 0
0 0 0 0 0 0 0 0 0 0 0 0 0 0 0 0 0 0 0 0 0 0 0 0 0 0 0 0 0 0 0 1 1 1 0 0 0 0 0 0 0 0 0 0
0 0 0 0 0 0 0 0 0 0 0 0 0 0 0 0 0 0 0 0 0 0 0 0 0 0 0 0 0 0 0 0 1 0 0 0 0 0 0 0 0 0 0 0
0 0 0 0 0 0 0 0 0 0 0 0 0 0 0 0 0 0 0 0 0 0 0 0 0 0 0 0 0 0 0 0 0 0 0 0 0 0 0 0 0 0 0 0
0 0 0 0 0 0 0 0 0 0 0 0 0 0 0 0 0 0 0 0 0 0 0 0 0 0 0 0 0 0 0 0 0 0 0 0 0 0 0 0 0 0 0 0
0 0 0 0 0 0 0 0 0 0 0 0 0 0 0 0 0 0 0 0 0 0 0 0 0 0 0 0 0 0 0 0 0 0 0 0 0 0 0 0 0 0 0 0
0 0 0 0 0 0 0 0 0 0 0 0 0 0 0 0 0 0 0 0 0 0 0 0 0 0 0 0 0 0 0 0 0 0 0 0 0 0 0 0 0 0 0 0
0 0 0 0 0 0 0 0 0 0 0 0 0 0 0 0 0 0 0 0 0 0 0 0 0 0 0 0 0 0 0 0 0 0 0 0 0 0 0 0 0 0 0 0
0 0 0 0 0 0 0 0 0 0 0 0 0 0 0 0 0 0 0 0 0 0 0 0 0 0 0 0 0 0 0 0 0 0 0 0 0 0 0 0 0 0 0 0
0 0 0 0 0 0 0 0 0 0 0 0 0 0 0 0 0 0 0 0 0 0 0 0 0 0 0 0 0 0 0 0 0 0 0 0 0 0 0 0 0 0 0 0
0 0 0 0 0 0 0 0 0 0 0 0 0 0 0 0 0 0 0 0 0 0 0 0 0 0 0 0 0 0 0 0 0 0 0 0 0 0 0 0 0 0 0 0
0 0 0 0 0 0 0 0 0 0 0 0 0 0 0 0 0 0 0 0 0 0 0 0 0 0 0 0 0 0 0 0 0 0 0 0 0 0 0 0 0 0 0 0
0 0 0 0 0 0 0 0 0 0 0 0 0 0 0 0 0 0 0 0 0 0 0 0 0 0 0 0 0 0 0 0 0 0 0 0 0 0 0 0 0 0 0 0
0 0 0 0 0 0 0 0 0 0 0 0 0 0 0 0 0 0 0 0 0 0 0 0 0 0 0 0 0 0 0 0 0 0 0 0 0 0 0 0 0 0 0 0
0 0 0 0 0 0 0 0 0 0 0 0 0 0 0 0 0 0 0 0 0 0 0 0 0 0 0 0 0 0 0 0 0 0 0 0 0 0 0 0 0 0 0 0
0 0 0 0 0 0 0 0 0 0 0 0 0 0 0 0 0 0 0 0 0 0 0 0 0 0 0 0 0 0 0 0 0 0 0 0 0 0 0 0 0 0 0 0
0 0 0 0 0 0 0 0 0 0 0 0 0 0 0 0 0 0 0 0 0 0 0 0 0 0 0 0 0 0 0 0 0 0 0 0 0 0 0 0 0 0 0 0
0 0 0 0 0 0 0 0 0 0 0 0 0 0 0 0 0 0 0 0 0 0 0 0 0 0 0 0 0 0 0 0 0 0 0 0 0 0 0 0 0 0 0 0
0 0 0 0 0 0 0 0 0 0 0 0 0 0 0 0 0 0 0 0 0 0 0 0 0 0 0 0 0 0 0 0 0 0 0 0 0 0 0 0 0 0 0 0
0 0 0 0 0 0 0 0 0 0 0 0 0 0 0 0 0 0 0 0 0 0 0 0 0 0 0 0 0 0 0 0 0 0 0 0 0 0 0 0 0 0 0 0
0 0 0 0 0 0 0 0 0 0 0 0 0 0 0 0 0 0 0 0 0 0 0 0 0 0 0 0 0 0 0 0 0 0 0 0 0 0 0 0 0 0 0 0
0 0 0 0 0 0 0 0 0 0 0 0 0 0 0 0 0 0 0 0 0 0 0 0 0 0 0 0 0 0 0 0 0 0 0 0 0 0 0 0 0 0 0 0
0 0 0 0 0 0 0 0 0 0 0 0 0 0 0 0 0 0 0 0 0 0 0 0 0 0 0 0 0 0 0 0 0 0 0 0 0 0 0 0 0 0 0 0
0 0 0 0 0 0 0 0 0 0 0 0 0 0 0 0 0 0 0 0 0 0 0 0 0 0 0 0 0 0 0 0 0 0 0 0 0 0 0 0 0 0 0 0
Wind_Speed
9 7 6 7 8 5 3 4 6 7 8 6 8 8 7 5 4 3 4 3 3 4 4 4 5 5 4 4 5 5 5 5 4 2 1 1 1 1 1 1 2 2 2 2
6 6 6 5 4 3 3 5 6 7 7 7 9 8 8 7 5 3 4 4 5 4 5 5 5 5 4 4 3 5 4 5 5 2 1 1 1 0 1 0 1 1 2 2
5 4 5 5 5 5 4 4 5 7 7 7 8 7 8 9 7 6 6 5 5 6 6 5 4 4 3 3 3 3 3 5 5 4 1 1 1 1 0 1 1 1 0 1
2 3 4 4 3 3 3 4 6 7 6 5 5 5 7 8 7 6 5 5 6 6 6 5 4 4 3 3 2 2 3 3 4 4 2 1 1 0 0 0 1 1 1 0
3 3 4 3 2 2 3 3 4 6 5 5 5 5 5 6 6 6 5 6 6 6 6 6 5 4 4 4 4 3 3 4 3 3 3 0 1 1 1 1 0 1 1 1
5 4 2 1 2 1 4 4 4 3 3 3 7 5 5 4 6 6 6 7 6 6 7 6 6 5 5 5 4 4 4 4 3 2 2 1 0 1 2 2 1 1 1 1
7 6 4 3 4 4 4 3 2 3 2 4 8 6 6 7 8 8 7 7 7 6 7 6 6 6 5 5 4 3 4 3 1 1 1 1 1 2 2 2 1 2 1 0
6 6 5 3 2 3 4 2 1 2 4 5 6 7 8 8 8 8 8 8 8 7 7 7 6 5 4 4 3 3 3 2 1 1 1 1 1 1 1 1 1 2 1 1
3 5 7 4 3 2 3 5 6 4 3 4 7 10 9 8 8 8 8 7 7 7 7 6 5 5 4 4 3 3 3 2 1 1 1 1 1 1 1 2 2 2 2 2
2 5 8 5 5 4 5 5 3 4 3 3 8 9 7 8 7 7 7 6 6 6 6 6 5 5 4 4 3 2 2 2 2 2 2 1 1 1 1 2 2 2 3 2
3 3 8 7 4 4 5 4 2 3 1 2 4 5 7 9 8 7 7 6 6 6 6 5 4 4 4 3 3 3 2 2 2 2 2 2 2 2 2 2 2 3 3 3
2 3 5 7 4 2 4 3 2 2 1 1 3 6 7 8 8 7 7 6 6 5 5 5 4 4 3 3 3 2 2 2 2 2 2 2 2 3 3 3 3 3 4 3
4 3 4 7 6 5 3 2 4 4 3 1 2 8 8 8 8 7 7 6 5 5 5 5 4 3 3 2 2 2 2 2 2 1 2 2 3 3 3 3 4 4 5 5
4 4 2 2 1 5 5 3 3 4 3 1 4 10 10 9 8 7 6 6 5 5 5 5 3 3 3 2 2 2 2 2 2 1 1 2 3 2 2 3 4 5 5 6
6 5 3 1 1 1 3 4 3 4 4 1 5 9 10 9 8 7 6 5 5 5 5 4 3 3 2 2 2 2 2 2 2 1 1 2 3 3 3 3 3 4 5 7
6 5 4 3 3 3 4 4 4 3 1 2 5 6 9 9 8 7 6 6 5 4 4 4 4 3 3 3 3 3 3 3 2 1 1 2 3 3 3 3 4 4 5 6
6 7 6 5 5 6 7 8 8 6 5 5 4 6 11 10 8 6 6 5 5 4 4 3 3 4 4 4 3 3 3 3 3 2 2 2 3 3 3 4 4 4 5 5
7 7 5 5 6 8 2 4 4 4 4 4 5 9 10 8 6 6 6 6 5 4 4 3 3 3 4 5 5 4 4 4 4 3 3 3 3 3 4 4 5 5 5 5
7 6 5 5 7 4 5 6 6 5 4 5 7 9 9 9 7 6 6 5 5 4 3 3 3 3 4 5 6 6 5 5 5 4 4 4 4 4 4 5 5 5 5 5
6 7 6 6 6 5 4 9 6 3 4 7 8 9 9 9 5 4 6 6 5 4 3 3 2 3 4 5 5 5 5 5 6 5 6 5 5 5 5 5 5 5 5 5
7 7 9 8 7 1 8 10 8 4 3 8 9 9 9 7 2 6 8 6 5 4 3 2 2 2 3 4 4 4 5 6 5 5 6 6 6 5 6 5 4 5 5 5
8 6 8 7 8 4 10 8 5 4 7 8 7 7 7 6 7 7 7 5 4 3 2 2 2 2 2 3 4 4 4 5 5 5 6 6 6 6 6 5 5 5 5 5
5 2 1 2 2 6 5 5 5 5 6 6 6 6 7 8 7 6 5 4 4 3 2 1 1 1 1 2 3 4 5 5 5 5 6 6 6 6 5 5 4 4 4 4
3 1 1 0 6 7 5 5 4 4 4 4 5 6 6 6 6 5 4 4 3 2 2 1 0 1 2 2 3 3 4 5 6 6 6 6 6 6 6 5 4 4 4 4
1 1 2 4 3 5 5 5 5 4 4 4 4 5 5 5 4 4 3 3 2 2 2 1 0 1 2 2 3 3 4 5 6 6 6 6 5 5 5 5 5 5 5 5
5 5 5 4 3 4 5 7 7 6 5 5 5 4 4 4 4 3 3 2 2 1 1 1 1 2 3 3 4 3 3 4 6 6 5 4 4 4 4 5 6 8 9 11
Wind_Direction
196 208 206 196 212 243 220 177 148 135 140 141 127 122 113 109 98 105 115 104 101 124 141 135 132 134 131 132 134 131 149 143 124 110 93 77 69 11 57 56 62 13 352 4
194 211 211 193 204 228 189 137 134 128 141 140 128 120 112 108 102 84 79 86 87 94 108 113 130 138 145 143 140 140 147 136 129 138 144 153 114 18 132 118 91 2 1 15
194 189 197 179 189 186 141 144 151 139 140 130 125 114 110 101 82 67 54 55 72 81 88 89 94 109 118 129 138 128 131 139 139 144 123 70 74 297 25 159 134 221 225 68
198 184 176 168 161 129 144 163 159 150 151 152 151 131 115 110 94 78 61 57 60 70 81 83 77 79 78 74 88 124 132 135 132 132 126 164 193 218 227 187 180 227 139 152
154 140 153 153 142 153 137 159 169 172 178 159 161 128 110 109 94 86 82 74 68 67 74 85 77 80 72 61 48 41 80 85 102 113 132 228 314 316 351 358 28 297 181 209
136 134 125 118 138 183 154 174 185 192 190 176 164 142 106 91 92 91 85 83 77 72 68 72 72 69 68 65 54 46 62 64 84 114 151 183 246 305 325 319 309 292 246 202
140 145 146 176 166 178 199 186 162 180 195 176 153 115 96 82 81 83 81 79 80 76 75 72 67 64 65 69 66 65 72 72 95 144 215 202 216 263 266 278 279 289 292 279
159 153 157 185 204 172 197 209 221 190 179 156 135 104 105 97 87 82 78 75 77 75 72 71 68 64 63 65 67 65 69 68 71 234 256 222 228 260 270 303 305 297 300 290
177 149 153 177 230 234 206 200 223 245 203 156 116 113 119 114 102 93 87 80 75 75 72 70 64 62 62 58 53 63 62 56 35 326 308 286 282 312 325 312 308 310 302 301
217 148 155 170 226 216 251 258 216 213 179 140 138 145 148 139 121 107 96 89 85 85 83 79 69 62 59 61 55 56 69 54 35 2 333 340 339 335 322 303 313 318 311 316
227 174 163 174 212 224 215 230 256 273 207 139 137 102 119 131 124 116 105 95 90 86 85 80 73 66 60 59 56 49 44 45 34 2 344 350 350 338 327 307 304 290 285 287
218 248 191 178 177 291 304 307 321 315 318 156 119 109 112 117 114 111 105 98 93 87 87 84 76 70 61 53 48 47 32 26 34 3 358 356 2 344 331 318 314 307 297 290
328 253 194 170 169 197 222 299 315 307 292 256 132 129 135 126 118 111 107 100 96 91 85 81 74 64 52 43 36 36 29 15 25 20 5 6 351 338 329 329 326 317 316 313
290 276 288 258 180 180 185 202 277 294 285 292 115 134 145 136 128 118 112 106 98 90 83 77 71 63 49 35 26 25 18 10 14 25 3 347 330 329 323 323 322 325 328 320
260 269 257 203 81 129 174 193 226 266 284 293 126 139 149 145 137 130 123 113 104 91 80 73 63 53 43 40 23 21 10 4 0 13 352 330 324 329 326 323 319 324 322 315
252 268 256 233 193 209 229 222 221 233 255 142 131 125 130 131 131 135 132 121 108 92 77 65 49 36 21 22 19 17 1 354 346 356 345 328 324 329 320 315 314 316 310 307
235 256 263 250 205 212 233 216 210 209 198 192 187 140 134 136 144 146 133 123 113 96 77 57 43 34 16 11 14 10 357 345 345 353 346 329 325 321 316 313 308 300 295 294
279 271 265 255 222 236 119 91 152 185 187 176 134 131 140 138 134 125 121 119 111 100 86 61 40 30 15 13 12 7 4 355 356 1 344 331 323 317 313 305 296 290 292 293
255 275 275 263 254 228 173 162 161 173 188 164 145 139 138 134 132 128 119 115 109 100 93 75 38 28 19 17 8 0 1 3 6 3 346 338 331 315 301 293 288 285 288 289
237 253 259 263 259 262 140 137 142 171 195 166 156 149 148 154 173 162 132 117 107 95 86 78 49 30 21 11 3 358 356 3 1 353 340 332 321 307 296 288 286 284 280 278
196 218 233 254 260 231 116 127 144 191 173 147 152 152 160 174 141 125 128 120 113 103 89 77 62 41 19 2 356 357 356 352 344 336 328 317 311 303 293 286 288 291 288 285
192 202 211 223 240 208 139 156 176 123 108 127 135 144 146 122 109 115 121 123 122 115 103 85 64 40 11 358 352 351 346 335 330 324 317 310 306 303 306 295 288 291 295 294
219 241 245 206 104 92 122 107 90 103 124 126 131 130 129 131 132 129 131 132 132 130 123 106 74 16 348 353 356 339 331 328 324 322 318 311 311 309 307 305 303 299 294 290
207 198 287 176 143 145 134 122 112 101 104 109 121 131 137 140 141 142 143 144 145 147 142 136 119 320 327 343 340 328 327 325 323 321 318 316 318 319 322 320 306 299 297 294
355 117 236 250 178 148 166 165 151 142 135 130 127 129 135 139 146 148 152 155 155 153 151 166 239 294 307 318 314 319 325 325 320 317 319 320 318 316 314 311 306 302 289 283
252 236 230 234 203 198 175 166 162 164 167 159 149 143 143 150 155 156 161 157 156 168 188 215 241 272 295 307 309 317 320 318 316 317 320 316 311 309 310 309 309 302 292 291